When you browse on this site, cookies collect data to enhance your experience and personalize the content and advertising you see.
Visit our Privacy Policy to learn more. By continuing to use the site, you agree to this use of cookies and data.
  • In Deutschland
  • Länderverzeichnis
  • Für 7 Tage
  • Wassertemperatur
  • Wetterkarte
  • Widgets
  • user-avatar
    Anmelden

    Stündliche Wetter Dangriga

    Heute, 22 September, Sonntag

    Zeit Temperatur Niederschläge Wind Luftdruck Luftfeuchtigkeit
    00:00 +25°C° 0 mm 1 m/S 758 mmHg 96%
    01:00 +25°C° 0 mm 1 m/S 758 mmHg 96%
    02:00 +25°C° 0 mm 1 m/S 758 mmHg 96%
    03:00 +25°C° 0 mm 2 m/S 758 mmHg 96%
    04:00 +25°C° 0 mm 2 m/S 758 mmHg 96%
    05:00 +25°C° 0 mm 2 m/S 758 mmHg 96%
    06:00 +25°C° 0 mm 2 m/S 758 mmHg 95%
    07:00 +28°C° 0 mm 1 m/S 758 mmHg 83%
    08:00 +31°C° 0 mm 1 m/S 759 mmHg 70%
    09:00 +34°C° 0 mm 1 m/S 759 mmHg 57%
    10:00 +35°C° 0 mm 1 m/S 759 mmHg 53%
    11:00 +37°C° 0 mm 2 m/S 758 mmHg 48%
    12:00 +38°C° 0 mm 2 m/S 758 mmHg 44%
    13:00 +37°C° 0 mm 3 m/S 757 mmHg 49%
    14:00 +36°C° 0 mm 3 m/S 757 mmHg 54%
    15:00 +35°C° 0 mm 3 m/S 756 mmHg 59%
    16:00 +33°C° 0 mm 3 m/S 756 mmHg 68%
    17:00 +30°C° 0 mm 2 m/S 756 mmHg 77%
    18:00 +28°C° 0 mm 2 m/S 757 mmHg 86%
    19:00 +27°C° 0.1 mm 2 m/S 757 mmHg 89%
    20:00 +27°C° 0.1 mm 2 m/S 758 mmHg 93%
    21:00 +26°C° 0.1 mm 2 m/S 759 mmHg 96%
    22:00 +26°C° 0 mm 2 m/S 758 mmHg 96%
    23:00 +26°C° 0 mm 2 m/S 758 mmHg 97%

    Morgen, 23 September, Montag

    Zeit Temperatur Niederschläge Wind Luftdruck Luftfeuchtigkeit
    00:00 +26°C° 0 mm 2 m/S 758 mmHg 97%
    01:00 +26°C° 0 mm 2 m/S 758 mmHg 97%
    02:00 +26°C° 0 mm 2 m/S 758 mmHg 97%
    03:00 +26°C° 0 mm 2 m/S 758 mmHg 97%
    04:00 +25°C° 0.1 mm 2 m/S 758 mmHg 97%
    05:00 +25°C° 0.1 mm 2 m/S 758 mmHg 97%
    06:00 +25°C° 0.1 mm 2 m/S 758 mmHg 97%
    07:00 +28°C° 0 mm 2 m/S 758 mmHg 85%
    08:00 +31°C° 0 mm 1 m/S 758 mmHg 73%
    09:00 +34°C° 0 mm 1 m/S 759 mmHg 61%
    10:00 +34°C° 0 mm 1 m/S 758 mmHg 60%
    11:00 +36°C° 0 mm 2 m/S 758 mmHg 58%
    12:00 +36°C° 0 mm 2 m/S 757 mmHg 57%
    13:00 +35°C° 0.2 mm 2 m/S 757 mmHg 64%
    14:00 +34°C° 0.2 mm 3 m/S 756 mmHg 71%
    15:00 +33°C° 0.2 mm 3 m/S 756 mmHg 79%
    16:00 +31°C° 0.1 mm 3 m/S 756 mmHg 85%
    17:00 +29°C° 0.1 mm 3 m/S 756 mmHg 91%
    18:00 +28°C° 0.1 mm 3 m/S 756 mmHg 97%
    19:00 +27°C° 0.1 mm 2 m/S 757 mmHg 97%
    20:00 +27°C° 0.1 mm 2 m/S 757 mmHg 97%
    21:00 +27°C° 0.1 mm 2 m/S 758 mmHg 98%
    22:00 +27°C° 0.3 mm 2 m/S 758 mmHg 98%
    23:00 +26°C° 0.3 mm 2 m/S 757 mmHg 98%

    übermorgen, 24 September, Dienstag

    Zeit Temperatur Niederschläge Wind Luftdruck Luftfeuchtigkeit
    00:00 +26°C° 0.3 mm 2 m/S 757 mmHg 98%
    01:00 +26°C° 0.1 mm 2 m/S 757 mmHg 98%
    02:00 +26°C° 0.1 mm 2 m/S 757 mmHg 98%
    03:00 +26°C° 0.1 mm 2 m/S 757 mmHg 97%
    04:00 +26°C° 0.1 mm 1 m/S 757 mmHg 97%
    05:00 +26°C° 0.1 mm 1 m/S 757 mmHg 97%
    06:00 +26°C° 0.1 mm 1 m/S 757 mmHg 97%
    07:00 +28°C° 0 mm 1 m/S 757 mmHg 86%
    08:00 +31°C° 0 mm 1 m/S 758 mmHg 75%
    09:00 +34°C° 0 mm 1 m/S 758 mmHg 63%
    10:00 +35°C° 0 mm 1 m/S 757 mmHg 60%
    11:00 +37°C° 0 mm 2 m/S 757 mmHg 56%
    12:00 +37°C° 0 mm 3 m/S 756 mmHg 52%
    13:00 +36°C° 0.2 mm 3 m/S 756 mmHg 62%
    14:00 +35°C° 0.2 mm 3 m/S 755 mmHg 72%
    15:00 +34°C° 0.2 mm 3 m/S 754 mmHg 82%
    16:00 +31°C° 0.2 mm 3 m/S 755 mmHg 86%
    17:00 +30°C° 0.2 mm 2 m/S 755 mmHg 90%
    18:00 +28°C° 0.2 mm 2 m/S 755 mmHg 95%
    19:00 +28°C° 0.3 mm 2 m/S 756 mmHg 96%
    20:00 +27°C° 0.3 mm 2 m/S 756 mmHg 97%
    21:00 +27°C° 0.3 mm 3 m/S 757 mmHg 98%
    22:00 +27°C° 0.5 mm 3 m/S 757 mmHg 98%
    23:00 +26°C° 0.5 mm 2 m/S 757 mmHg 98%

    25 September, Mittwoch

    Zeit Temperatur Niederschläge Wind Luftdruck Luftfeuchtigkeit
    00:00 +26°C° 0.5 mm 2 m/S 756 mmHg 98%
    01:00 +26°C° 0.3 mm 2 m/S 756 mmHg 98%
    02:00 +26°C° 0.3 mm 2 m/S 756 mmHg 98%
    03:00 +26°C° 0.3 mm 1 m/S 756 mmHg 98%
    04:00 +26°C° 0.4 mm 1 m/S 756 mmHg 98%
    05:00 +26°C° 0.4 mm 1 m/S 757 mmHg 98%
    06:00 +26°C° 0.4 mm 1 m/S 757 mmHg 99%
    07:00 +28°C° 0.4 mm 1 m/S 757 mmHg 87%
    08:00 +31°C° 0.4 mm 1 m/S 757 mmHg 75%
    09:00 +34°C° 0.4 mm 1 m/S 758 mmHg 64%
    10:00 +35°C° 0 mm 1 m/S 757 mmHg 58%
    11:00 +38°C° 0 mm 2 m/S 757 mmHg 52%
    12:00 +39°C° 0 mm 2 m/S 756 mmHg 46%
    13:00 +37°C° 0.2 mm 3 m/S 755 mmHg 60%
    14:00 +35°C° 0.2 mm 3 m/S 755 mmHg 75%
    15:00 +33°C° 0.2 mm 4 m/S 754 mmHg 89%
    16:00 +31°C° 0.3 mm 3 m/S 754 mmHg 92%
    17:00 +29°C° 0.3 mm 3 m/S 754 mmHg 94%
    18:00 +28°C° 0.3 mm 3 m/S 755 mmHg 97%
    19:00 +28°C° 0 mm 3 m/S 755 mmHg 97%
    20:00 +27°C° 0 mm 3 m/S 756 mmHg 97%
    21:00 +27°C° 0 mm 3 m/S 756 mmHg 97%
    22:00 +27°C° 0.2 mm 3 m/S 756 mmHg 98%
    23:00 +27°C° 0.2 mm 3 m/S 756 mmHg 98%

    26 September, Donnerstag

    Zeit Temperatur Niederschläge Wind Luftdruck Luftfeuchtigkeit
    00:00 +27°C° 0.2 mm 3 m/S 756 mmHg 98%
    01:00 +27°C° 0.1 mm 2 m/S 756 mmHg 98%
    02:00 +26°C° 0.1 mm 2 m/S 755 mmHg 98%
    03:00 +26°C° 0.1 mm 1 m/S 755 mmHg 98%
    04:00 +26°C° 0 mm 1 m/S 755 mmHg 98%
    05:00 +26°C° 0 mm 1 m/S 756 mmHg 98%
    06:00 +26°C° 0 mm 1 m/S 756 mmHg 97%
    07:00 +29°C° 0 mm 1 m/S 756 mmHg 87%
    08:00 +29°C° 0 mm 0 m/S 757 mmHg 77%
    09:00 +32°C° 0 mm 0 m/S 757 mmHg 67%
    10:00 +35°C° 0 mm 1 m/S 757 mmHg 62%
    11:00 +37°C° 0 mm 2 m/S 756 mmHg 56%
    12:00 +38°C° 0 mm 3 m/S 756 mmHg 51%
    13:00 +36°C° 0.2 mm 3 m/S 755 mmHg 62%
    14:00 +35°C° 0.2 mm 3 m/S 754 mmHg 73%
    15:00 +33°C° 0.2 mm 3 m/S 754 mmHg 84%
    16:00 +31°C° 0 mm 3 m/S 754 mmHg 86%
    17:00 +30°C° 0 mm 3 m/S 754 mmHg 88%
    18:00 +28°C° 0 mm 3 m/S 755 mmHg 89%
    19:00 +28°C° 0 mm 4 m/S 755 mmHg 91%
    20:00 +27°C° 0 mm 4 m/S 756 mmHg 93%
    21:00 +27°C° 0 mm 4 m/S 757 mmHg 95%
    22:00 +27°C° 0.1 mm 4 m/S 757 mmHg 96%
    23:00 +27°C° 0.1 mm 4 m/S 756 mmHg 97%

    27 September, Freitag

    Zeit Temperatur Niederschläge Wind Luftdruck Luftfeuchtigkeit
    00:00 +27°C° 0.1 mm 4 m/S 756 mmHg 98%
    01:00 +27°C° 0.1 mm 4 m/S 756 mmHg 98%
    02:00 +27°C° 0.1 mm 3 m/S 756 mmHg 98%
    03:00 +27°C° 0.1 mm 3 m/S 755 mmHg 98%
    04:00 +27°C° 0 mm 3 m/S 755 mmHg 98%
    05:00 +27°C° 0 mm 3 m/S 756 mmHg 98%
    06:00 +27°C° 0 mm 2 m/S 756 mmHg 98%
    07:00 +29°C° 0.1 mm 3 m/S 756 mmHg 90%
    08:00 +31°C° 0.1 mm 3 m/S 757 mmHg 82%
    09:00 +33°C° 0.1 mm 4 m/S 757 mmHg 74%
    10:00 +34°C° 0.9 mm 4 m/S 757 mmHg 70%
    11:00 +35°C° 0.9 mm 4 m/S 756 mmHg 67%
    12:00 +35°C° 0.9 mm 4 m/S 756 mmHg 63%
    13:00 +35°C° 0.1 mm 4 m/S 755 mmHg 65%
    14:00 +35°C° 0.1 mm 5 m/S 755 mmHg 68%
    15:00 +34°C° 0.1 mm 5 m/S 754 mmHg 71%
    16:00 +33°C° 0.1 mm 5 m/S 754 mmHg 80%
    17:00 +30°C° 0.1 mm 5 m/S 755 mmHg 88%
    18:00 +29°C° 0.1 mm 5 m/S 755 mmHg 97%
    19:00 +28°C° 0.3 mm 5 m/S 756 mmHg 98%
    20:00 +28°C° 0.3 mm 5 m/S 756 mmHg 98%
    21:00 +28°C° 0.3 mm 5 m/S 756 mmHg 99%
    22:00 +28°C° 3.5 mm 6 m/S 756 mmHg 98%
    23:00 +28°C° 3.5 mm 6 m/S 756 mmHg 98%
    Mehr zeigen